Flag for Switzerland Weather past 2 weeks in Biel, Switzerland

Now
60 °F

Cool.


Feels Like: 60 °F
Forecast: 45 / 63 °F
Wind: 1 mph from Southeast

Location: Grenchen

Current Time: Oct 20, 2014 at 1:22:39 PM

Latest Report: Oct 20, 2014 at 12:00 PM


Visibility: N/A

Pressure: 30.18 "Hg

Humidity: 100%

Dew point: 60 °F

Location of BielLocation

Historic Weather in Biel — Graph

°F

Biel temperature yesterday

Maximum temperature yesterday: 70 °F (at 4:00 PM)
Minimum temperature yesterday: 47 °F (at 3:00 AM)
Average temperature yesterday: 56 °F

Past Weeks' High & Low Weather Summary

 TemperatureHumidityPressure
High71 °F (Oct 9, 3:00 PM)100% (Oct 5, 12:00 PM)30.30 "Hg (Oct 5, 12:00 PM)
Low47 °F (Oct 19, 3:00 AM)55% (Oct 9, 3:00 PM)29.78 "Hg (Oct 15, 5:00 PM)
Average58 °F91%29.96 "Hg
* Reported Oct 5 12:00 Noon — Oct 20 12:00 Noon, Biel, Weather by CustomWeather, © 2014

Note: Actual official high and low records may vary slightly from our data, if they occured in-between our weather recording intervals... More about our weather records

Advertising

Biel weather history for previous 24 hours

 ConditionsComfort  
Time TempWeatherWind HumidityBarometerVisibility
12:00 PM
Oct 20
60 °FCool.1 mph100%30.18 "HgN/A
11:00 AM56 °FCool.1 mph100%30.20 "HgN/A
10:00 AM53 °FCool.1 mph100%30.22 "HgN/A
9:00 AM49 °FCool.2 mph100%30.23 "HgN/A
8:00 AM49 °FCool.1 mph100%30.23 "HgN/A
7:00 AM50 °FCool.No wind100%30.23 "HgN/A
5:00 AM50 °FCool.2 mph100%30.25 "HgN/A
4:00 AM51 °FCool.1 mph100%30.26 "HgN/A
3:00 AM51 °FCool.No wind100%30.27 "HgN/A
2:00 AM51 °FCool.No wind100%30.26 "HgN/A
1:00 AM51 °FCool.1 mph100%30.26 "HgN/A
12:00 AM51 °FCool.No wind100%30.26 "HgN/A
11:00 PM
Oct 19
53 °FCool.1 mph100%30.26 "HgN/A
10:00 PM54 °FCool.No wind99%30.25 "HgN/A
9:00 PM56 °FCool.1 mph98%30.24 "HgN/A
8:00 PM59 °FCool.1 mph91%30.23 "HgN/A
7:00 PM62 °FCool.1 mph86%30.21 "HgN/A
6:00 PM66 °FMild.3 mph76%30.19 "HgN/A
5:00 PM69 °FMild.7 mph67%30.17 "HgN/A
4:00 PM70 °FMild.7 mph67%30.18 "HgN/A
3:00 PM68 °FMild.6 mph71%30.20 "HgN/A
2:00 PM64 °FMild.6 mph81%30.23 "HgN/A
1:00 PM62 °FCool.7 mph99%30.27 "HgN/A
Weather by CustomWeather, © 2014

See weather overviewHow to use our weather pages